ASTR234 YAMB-YAMB

Flight info

Callsign ASTR234
Flight time 0h 4m
Altitude 2500
Route AMB
Aircraft DA40/L-SDGHITUY/LB1

Departure

Time 2026-04-16 05:32
Airport RAAF Base Amberley (YAMB)

Arrival

Time 2026-04-16 05:36
Airport RAAF Base Amberley (YAMB)
Time Latitude Longitude Altitude Speed Heading
2026-04-16 05:23 -27.64190 152.72106 89 ft 0 kts 12°
2026-04-16 05:25 -27.64189 152.72106 89 ft 0 kts 12°
2026-04-16 05:26 -27.64171 152.72103 90 ft 4 kts 296°
2026-04-16 05:26 -27.64165 152.72068 91 ft 5 kts 281°
2026-04-16 05:26 -27.64158 152.72031 88 ft 4 kts 283°
2026-04-16 05:26 -27.64160 152.72006 88 ft 3 kts 212°
2026-04-16 05:27 -27.64200 152.71996 89 ft 4 kts 191°
2026-04-16 05:27 -27.64228 152.71989 89 ft 5 kts 193°
2026-04-16 05:27 -27.64262 152.71981 90 ft 5 kts 192°
2026-04-16 05:27 -27.64302 152.71972 92 ft 6 kts 192°
2026-04-16 05:28 -27.64349 152.71960 94 ft 7 kts 191°
2026-04-16 05:28 -27.64406 152.71948 94 ft 9 kts 190°
2026-04-16 05:28 -27.64486 152.71928 95 ft 15 kts 192°
2026-04-16 05:28 -27.64580 152.71903 96 ft 13 kts 200°
2026-04-16 05:29 -27.64647 152.71862 98 ft 10 kts 232°
2026-04-16 05:29 -27.64673 152.71799 99 ft 8 kts 248°
2026-04-16 05:29 -27.64694 152.71742 99 ft 8 kts 249°
2026-04-16 05:29 -27.64711 152.71685 98 ft 1 kts 281°
2026-04-16 05:30 -27.64715 152.71669 97 ft 7 kts 263°
2026-04-16 05:31 -27.64581 152.71582 95 ft 43 kts 339°
2026-04-16 05:31 -27.64184 152.71409 143 ft 73 kts 346°
2026-04-16 05:31 -27.63686 152.71178 291 ft 82 kts 340°
2026-04-16 05:31 -27.63168 152.70927 453 ft 83 kts 342°
2026-04-16 05:32 -27.62613 152.70702 547 ft 88 kts 345°
2026-04-16 05:32 -27.62041 152.70462 674 ft 91 kts 345°
2026-04-16 05:32 -27.61519 152.70188 905 ft 82 kts 338°
2026-04-16 05:32 -27.61047 152.70128 1038 ft 89 kts 62°
2026-04-16 05:33 -27.60878 152.70772 1255 ft 89 kts 59°
2026-04-16 05:33 -27.60554 152.71429 1399 ft 95 kts 53°
2026-04-16 05:33 -27.60321 152.71892 1456 ft 109 kts 58°
2026-04-16 05:33 -27.60973 152.72563 1852 ft 118 kts 158°
2026-04-16 05:34 -27.61483 152.72773 1993 ft 117 kts 159°
2026-04-16 05:34 -27.62567 152.73231 2222 ft 118 kts 152°
2026-04-16 05:34 -27.63266 152.73600 2424 ft 115 kts 153°
2026-04-16 05:34 -27.64044 152.73975 2290 ft 127 kts 155°
2026-04-16 05:35 -27.64830 152.74118 2048 ft 109 kts 231°
2026-04-16 05:35 -27.65158 152.73355 1527 ft 118 kts 254°
2026-04-16 05:35 -27.65432 152.72428 918 ft 128 kts 262°
2026-04-16 05:35 -27.64989 152.71758 325 ft 123 kts 340°
2026-04-16 05:36 -27.64459 152.71532 101 ft 112 kts 337°
2026-04-16 05:36 -27.63862 152.71272 97 ft 73 kts 342°
2026-04-16 05:36 -27.63620 152.71163 93 ft 0 kts 336°
2026-04-16 05:37 -27.63550 152.71133 92 ft 34 kts 339°
2026-04-16 05:37 -27.63206 152.70984 90 ft 48 kts 340°
2026-04-16 05:37 -27.63141 152.70954 92 ft 4 kts 339°
2026-04-16 05:38 -27.63090 152.70930 92 ft 6 kts 336°
2026-04-16 05:38 -27.62995 152.70890 93 ft 39 kts 336°
2026-04-16 05:38 -27.62628 152.70733 107 ft 70 kts 340°
2026-04-16 05:38 -27.62176 152.70526 108 ft 68 kts 348°
2026-04-16 05:39 -27.61748 152.70344 131 ft 69 kts 343°
2026-04-16 05:39 -27.61339 152.70188 106 ft 58 kts 354°
2026-04-16 05:39 -27.61049 152.70345 134 ft 60 kts 73°
2026-04-16 05:39 -27.60946 152.70801 242 ft 57 kts 74°
2026-04-16 05:40 -27.60803 152.71229 368 ft 57 kts 62°
2026-04-16 05:40 -27.60503 152.71520 378 ft 80 kts 339°
2026-04-16 05:40 -27.60639 152.71145 430 ft 92 kts 130°
2026-04-16 05:40 -27.60419 152.71649 473 ft 74 kts 47°
2026-04-16 05:41 -27.60555 152.72139 434 ft 104 kts 169°
2026-04-16 05:41 -27.61268 152.72320 529 ft 112 kts 155°
2026-04-16 05:41 -27.61881 152.72682 803 ft 104 kts 140°
2026-04-16 05:41 -27.62487 152.73152 984 ft 101 kts 141°
2026-04-16 05:42 -27.63066 152.73255 817 ft 97 kts 246°
2026-04-16 05:42 -27.63384 152.72524 437 ft 93 kts 239°
2026-04-16 05:42 -27.63760 152.71892 106 ft 86 kts 237°
2026-04-16 05:42 -27.64069 152.71394 108 ft 80 kts 235°
2026-04-16 05:43 -27.64392 152.70883 227 ft 79 kts 232°
2026-04-16 05:43 -27.64719 152.70398 318 ft 80 kts 236°
2026-04-16 05:43 -27.64853 152.70189 340 ft 84 kts 232°
2026-04-16 05:43 -27.65187 152.69949 335 ft 83 kts 146°
2026-04-16 05:44 -27.65670 152.70269 404 ft 82 kts 135°
2026-04-16 05:44 -27.66160 152.70590 504 ft 81 kts 137°
2026-04-16 05:44 -27.66282 152.71073 513 ft 75 kts 56°
2026-04-16 05:44 -27.65963 152.71533 574 ft 78 kts 51°
2026-04-16 05:45 -27.65648 152.72053 566 ft 85 kts 54°
2026-04-16 05:45 -27.65231 152.72674 429 ft 112 kts 52°
2026-04-16 05:45 -27.64765 152.73368 485 ft 111 kts 53°
2026-04-16 05:45 -27.64190 152.73808 559 ft 105 kts 335°
2026-04-16 05:46 -27.63708 152.73261 509 ft 84 kts 321°
2026-04-16 05:46 -27.63413 152.72774 376 ft 85 kts 277°
2026-04-16 05:46 -27.63615 152.72155 209 ft 89 kts 236°
2026-04-16 05:46 -27.63929 152.71620 92 ft 69 kts 236°
2026-04-16 05:47 -27.64030 152.71464 96 ft 4 kts 237°
2026-04-16 05:47 -27.64046 152.71437 96 ft 8 kts 231°
2026-04-16 05:47 -27.64078 152.71387 97 ft 8 kts 234°
2026-04-16 05:47 -27.64094 152.71361 97 ft 0 kts 232°
2026-04-16 05:53 -27.64101 152.71363 97 ft 4 kts 123°
2026-04-16 05:53 -27.64118 152.71382 97 ft 3 kts 154°
2026-04-16 05:53 -27.64156 152.71398 96 ft 9 kts 159°
2026-04-16 05:53 -27.64212 152.71423 95 ft 8 kts 158°
2026-04-16 05:54 -27.64262 152.71439 95 ft 5 kts 152°
2026-04-16 05:54 -27.64285 152.71460 95 ft 3 kts 145°
2026-04-16 05:54 -27.64305 152.71465 95 ft 7 kts 165°
2026-04-16 05:54 -27.64344 152.71478 96 ft 10 kts 160°
2026-04-16 05:55 -27.64463 152.71533 96 ft 18 kts 156°
2026-04-16 05:55 -27.64572 152.71580 95 ft 16 kts 154°
2026-04-16 05:55 -27.64662 152.71621 96 ft 11 kts 163°
2026-04-16 05:55 -27.64716 152.71657 97 ft 8 kts 105°
2026-04-16 05:56 -27.64708 152.71700 98 ft 4 kts 69°
2026-04-16 05:56 -27.64704 152.71713 98 ft 4 kts 66°
2026-04-16 05:56 -27.64625 152.71914 97 ft 50 kts 65°
2026-04-16 05:56 -27.64644 152.72359 186 ft 71 kts 134°
2026-04-16 05:57 -27.65175 152.72262 303 ft 87 kts 261°
2026-04-16 05:57 -27.64794 152.71897 314 ft 85 kts 347°
2026-04-16 05:57 -27.64183 152.71626 568 ft 72 kts 343°
2026-04-16 05:57 -27.63393 152.71279 590 ft 104 kts 347°
2026-04-16 05:58 -27.63543 152.70949 266 ft 107 kts 57°
2026-04-16 05:58 -27.63388 152.71462 242 ft 81 kts 121°
2026-04-16 05:58 -27.63590 152.71966 89 ft 56 kts 123°
2026-04-16 05:58 -27.63660 152.72053 86 ft 2 kts 154°
2026-04-16 05:59 -27.63673 152.72043 86 ft 10 kts 211°
2026-04-16 05:59 -27.63669 152.72030 86 ft 11 kts 97°
2026-04-16 05:59 -27.63830 152.72113 84 ft 45 kts 188°
2026-04-16 05:59 -27.64192 152.72032 89 ft 38 kts 162°